Location: Lango�lan
(48.1202°N, 3.2340°W)
Time: 19:52:32
(UTC+00:00)

ERBS - Pass Details

Date: 23 October 2019
Orbit: 414 x 428 km, 57.0° (Epoch: 12 November)

Event Time Altitude Azimuth Distance (km) Brightness Sun altitude
Exits shadow 05:07:46 20° 332° (NNW) 1,039 4.0 -16.6°
Maximum altitude 05:08:19 21° 347° (NNW) 1,011 4.0 -16.6°
Drops below altitude 10° 05:11:00 10° 39° (NE) 1,520 5.6 -16.1°
Sets 05:13:27 0° 56° (NE) 2,390 7.1 -15.7°
